Location: Berg
(48.4333°N, 13.9167°E)
Time: 15:21:43
(UTC+00:00)

CREW DRAGON DEMO-1 DEB - Pass Details

Date: 18 September 2020
Orbit: 362 x 364 km, 51.6° (Epoch: 24 October)

Event Time Altitude Azimuth Distance (km) Brightness Sun altitude
Rises 18:27:54 0° 280° (W) 2,198 8.6 -13.5°
Reaches altitude 10° 18:29:59 10° 287° (WNW) 1,352 7.1 -13.8°
Maximum altitude 18:32:53 42° 1° (N) 532 3.7 -14.3°
Enters shadow 18:34:21 23° 60° (ENE) 823 4.2 -14.5°
